Location: Newark
(33.4453°N, 112.0669°W)
Time: 22:01:44
(UTC+00:00)

Explorer 7 - All Passes

Search period start: 25 February 2020 00:00
Search period end: 06 March 2020 00:00
Orbit: 485 x 679 km, 50.3° (Epoch: 25 February)

Date Brightness Start Highest point End Pass type
(mag) Time Alt. Az. Time Alt. Az. Time Alt. Az.
25 Feb - 00:47:07 10° NW 00:51:09 54° NE 00:54:58 10° ESE daylight
25 Feb - 02:28:55 10° W 02:31:14 15° SW 02:33:30 10° SSW visible
25 Feb - 16:24:20 10° SSW 16:28:37 31° SE 16:32:47 10° ENE daylight
25 Feb - 18:04:33 10° WSW 18:09:07 41° NW 18:13:32 10° NE daylight
25 Feb - 19:48:37 10° NW 19:50:39 13° NNW 19:52:39 10° N daylight
25 Feb - 23:12:10 10° NNW 23:15:04 18° NNE 23:17:52 10° ENE daylight
26 Feb - 00:51:58 10° NW 00:56:05 84° SW 00:59:57 10° SE daylight
26 Feb - 16:28:39 10° SSW 16:33:24 53° SE 16:38:01 10° ENE daylight
26 Feb - 18:10:01 10° W 18:14:11 28° NNW 18:18:12 10° NNE daylight
26 Feb - 19:55:14 10° NNW 19:56:00 10° NNW 19:56:46 10° N daylight
26 Feb - 23:16:42 10° NNW 23:20:15 25° NNE 23:23:37 10° E daylight
27 Feb - 00:57:00 10° WNW 01:00:55 44° SW 01:04:37 10° SSE daylight
27 Feb - 14:56:09 10° SSE 14:58:09 12° SE 15:00:09 10° E daylight
27 Feb - 16:33:21 10° SW 16:38:15 88° SE 16:43:01 10° NE daylight
27 Feb - 18:15:45 10° WNW 18:19:19 20° NNW 18:22:48 10° NNE daylight
27 Feb - 21:42:11 10° N 21:43:45 12° NNE 21:45:17 10° NE daylight
27 Feb - 23:21:20 10° NW 23:25:20 38° NE 23:29:06 10° ESE daylight
28 Feb - 01:02:21 10° WNW 01:05:39 24° SW 01:08:49 10° S daylight
28 Feb - 14:59:07 10° S 15:02:50 22° SE 15:06:31 10° ENE daylight
28 Feb - 16:38:22 10° WSW 16:43:11 57° NW 16:47:52 10° NE daylight
28 Feb - 18:21:41 10° WNW 18:24:33 15° NNW 18:27:20 10° NNE daylight
28 Feb - 21:46:29 10° NNW 21:49:03 15° NNE 21:51:32 10° ENE daylight
28 Feb - 23:26:05 10° NW 23:30:20 66° NE 23:34:17 10° ESE daylight
29 Feb - 01:08:27 10° W 01:10:19 13° SW 01:12:08 10° SSW daylight
29 Feb - 15:03:05 10° SSW 15:07:34 37° SE 15:12:00 10° ENE daylight
29 Feb - 16:43:39 10° WSW 16:48:11 37° NW 16:52:36 10° NNE daylight
29 Feb - 18:27:52 10° NW 18:29:51 12° NNW 18:31:47 10° N daylight
29 Feb - 21:50:58 10° NNW 21:54:17 20° NNE 21:57:27 10° ENE daylight
29 Feb - 23:30:59 10° NW 23:35:13 69° SW 23:39:11 10° SE daylight
01 Mar - 15:07:32 10° SW 15:12:22 63° SE 15:17:09 10° NE daylight
01 Mar - 16:49:11 10° W 16:53:16 26° NNW 16:57:15 10° NNE daylight
01 Mar - 18:34:23 10° NNW 18:35:12 10° N 18:36:02 10° N daylight
01 Mar - 20:16:33 10° N 20:17:38 11° NNE 20:18:40 10° NNE daylight
01 Mar - 21:55:34 10° NNW 21:59:26 29° NNE 22:03:05 10° E daylight
01 Mar - 23:36:06 10° WNW 23:40:00 37° SW 23:43:42 10° SSE daylight
02 Mar - 13:34:20 10° SSE 13:37:06 15° SE 13:39:51 10° E daylight
02 Mar - 15:12:20 10° SW 15:17:15 80° NW 15:22:05 10° NE daylight
02 Mar - 16:54:58 10° WNW 16:58:26 19° NNW 17:01:51 10° NNE daylight
02 Mar - 20:20:47 10° NNW 20:22:58 13° NNE 20:25:06 10° NE daylight
02 Mar - 22:00:14 10° NW 22:04:30 46° NE 22:08:28 10° ESE daylight
02 Mar - 23:41:34 10° W 23:44:44 20° SW 23:47:44 10° S daylight
03 Mar - 13:37:45 10° S 13:41:47 26° SE 13:45:48 10° ENE daylight
03 Mar - 15:17:25 10° WSW 15:22:12 50° NW 15:26:54 10° NE daylight
03 Mar - 17:00:57 10° NW 17:03:41 15° NNW 17:06:24 10° NNE daylight
03 Mar - 20:25:14 10° NNW 20:28:15 17° NNE 20:31:09 10° ENE daylight
03 Mar - 22:05:02 10° NW 22:09:27 79° NE 22:13:33 10° SE daylight
03 Mar - 23:48:10 10° WSW 23:49:21 11° SW 23:50:31 10° SW daylight
04 Mar - 13:41:54 10° SSW 13:46:31 43° SE 13:51:09 10° ENE daylight
04 Mar - 15:22:47 10° W 15:27:13 33° NNW 15:31:36 10° NNE daylight
04 Mar - 17:07:08 10° NW 17:09:01 12° NNW 17:10:53 10° N daylight
04 Mar - 18:50:55 10° N 18:51:27 10° N 18:51:59 10° NNE daylight
04 Mar - 20:29:47 10° NNW 20:33:27 24° NNE 20:36:57 10° E daylight
04 Mar - 22:09:59 10° NW 22:14:19 58° SW 22:18:20 10° SSE daylight
05 Mar - 13:46:28 10° SW 13:51:20 74° SE 13:56:13 10° NE daylight
05 Mar - 15:28:23 10° W 15:32:20 24° NNW 15:36:16 10° NNE daylight
05 Mar - 17:13:30 10° NNW 17:14:24 10° N 17:15:16 10° N daylight
05 Mar - 18:55:02 10° N 18:56:50 12° NNE 18:58:35 10° NE daylight
05 Mar - 20:34:24 10° NNW 20:38:34 34° NNE 20:42:30 10° E daylight
05 Mar - 22:15:11 10° WNW 22:19:05 32° SW 22:22:44 10° SSE daylight
